Content
SEND FEEDBACK

Daily
Averages
Monthly
Summary
United States of America

NEW YORK - CENTRAL PARK, NEW YORK


Home > North America > United States > New York
Elevation: 14 feet     Latitude: 40 47N     Longitude: 073 58W

WEATHER
 
SELECT A DAY
Number of Records: 148,109;   Date Range: 11/1/95 - 7/29/14
 
SHARE

PRINT THIS DATA

[ ← Previous Day ]
WEATHER ALMANAC - OCTOBER 5, 2013
[ Next Day → ]
[ °C ]   °F
Weather ElementAverageHighLow
Temperature69 °F75.9 °F (2:51 pm)64.9 °F (6:51 am)
Dewpoint61.1 °F62.1 °F (1:51 am)60.1 °F (4:51 am)
Humidity76.1 %84 % (3:51 am)60 % (2:51 pm)
Barometer30.07 in30.13 in (10:37 am)30.04 in (1:51 am)
Wind Speed3.3 mph6.9 mph (6:51 am)
Weather ElementAverage
Visibility6.1 mi
Wind DirectionNNE (38.3 °)

Weather ElementTotal
Precipitation---
Cooling Degree Days5.4 (Base 65)
Growing Degree Days20.4 (Base 50)
Averaged from 30 records on October 5, 2013
WEATHER CONDITIONS BREAKOUT
WIND DIRECTION BREAKOUT
WEATHER BY HOUR - OCTOBER 5, 2013
[ °C ]   °F
Local TimeTemperatureDewpointHumidityBarometerVisibilityWind DirectionWind SpeedGust SpeedPrecipitationEventsConditions
1:51 AM68.0 °F62.1 °F81 %30.04 in8.0 miCalmPartly Cloudy
2:51 AM66.9 °F61.0 °F81 %30.04 in8.0 miVariable3.5 mphMostly Cloudy
3:51 AM66.0 °F61.0 °F84 %30.04 in7.0 miNE (50°)4.6 mphMostly Cloudy
4:51 AM66.0 °F60.1 °F81 %30.05 in6.0 miVariable3.5 mphHaze
5:51 AM66.0 °F60.1 °F81 %30.06 in7.0 miVariable3.5 mphScattered Clouds
6:51 AM64.9 °F60.1 °F84 %30.06 in6.0 miENE (60°)6.9 mphHaze
7:11 AM64.9 °F60.1 °F84 %30.10 in6.0 miEast (80°)3.5 mphHaze
7:51 AM64.9 °F60.1 °F84 %30.07 in4.0 miCalmHaze
8:51 AM66.0 °F60.1 °F81 %30.09 in4.0 miCalmHaze
9:51 AM66.0 °F60.1 °F81 %30.11 in4.0 miENE (70°)4.6 mphHaze
10:37 AM66.9 °F60.1 °F79 %30.13 in5.0 miCalmHaze
10:51 AM66.9 °F60.1 °F79 %30.10 in5.0 miVariable4.6 mphHaze
11:51 AM69.1 °F60.1 °F73 %30.09 in5.0 miENE (60°)4.6 mphHaze
12:51 PM71.1 °F61.0 °F70 %30.09 in7.0 miENE (70°)4.6 mphOvercast
1:03 PM71.1 °F61.0 °F70 %30.10 in7.0 miCalmOvercast
1:35 PM73.0 °F61.0 °F66 %30.09 in7.0 miEast (80°)5.8 mphScattered Clouds
1:51 PM73.9 °F61.0 °F64 %30.06 in8.0 miNW (320°)3.5 mphScattered Clouds
2:01 PM73.9 °F61.0 °F64 %30.08 in8.0 miENE (60°)3.5 mphMostly Cloudy
2:08 PM73.9 °F61.0 °F64 %30.08 in7.0 miCalmPartly Cloudy
2:51 PM75.9 °F61.0 °F60 %30.04 in7.0 miENE (70°)6.9 mphClear
3:51 PM75.0 °F61.0 °F62 %30.04 in7.0 miVariable3.5 mphClear
4:51 PM73.9 °F62.1 °F66 %30.04 in7.0 miENE (70°)4.6 mphClear
5:51 PM73.0 °F62.1 °F68 %30.05 in7.0 miCalmPartly Cloudy
6:51 PM70.0 °F62.1 °F76 %30.06 in6.0 miVariable3.5 mphHaze
7:51 PM68.0 °F62.1 °F81 %30.06 in5.0 miVariable3.5 mphHaze
8:39 PM66.9 °F62.1 °F84 %30.10 in5.0 miSSE (160°)5.8 mphHaze
8:51 PM66.9 °F62.1 °F84 %30.08 in5.0 miVariable3.5 mphHaze
9:51 PM66.9 °F62.1 °F84 %30.08 in5.0 miVariable3.5 mphHaze
10:51 PM66.9 °F62.1 °F84 %30.10 in5.0 miVariable4.6 mphHaze
11:51 PM66.9 °F62.1 °F84 %30.09 in5.0 miNorthHaze
Hourly data recorded from KNYC, located miles away from New York - Central Park, New York







STORIES FROM OUR PARTNERS